Location: Tucson
(32.2217°N, 110.9265°W)
Time: 07:55:41
(UTC-07:00)

Envisat - Visible Passes

Search period start: 06 October 2022 00:00
Search period end: 16 October 2022 00:00
Orbit: 764 x 765 km, 98.2° (Epoch: 05 October)

Date Brightness Start Highest point End Pass type
(mag) Time Alt. Az. Time Alt. Az. Time Alt. Az.
06 Oct 5.5 03:34:42 10° NE 03:37:59 17° E 03:41:15 10° SE visible
06 Oct 3.3 05:12:21 10° N 05:17:06 42° WNW 05:21:50 10° SW visible
07 Oct 3.0 04:35:10 10° NNE 04:40:16 80° ESE 04:45:19 10° S visible
08 Oct 4.6 03:58:43 10° NE 04:03:14 32° E 04:07:43 10° SSE visible
08 Oct 4.1 05:38:03 10° NNW 05:42:00 23° WNW 05:45:57 10° WSW visible
09 Oct 5.9 03:23:50 10° ENE 03:26:02 13° E 03:28:13 10° ESE visible
09 Oct 3.0 05:00:20 10° N 05:05:17 55° WNW 05:10:13 10° SSW visible
10 Oct 3.5 04:23:23 10° NNE 04:28:23 60° E 04:33:22 10° S visible
11 Oct 5.1 03:47:13 10° NE 03:51:18 24° E 03:55:21 10° SSE visible
11 Oct 3.7 05:25:51 10° N 05:30:14 30° WNW 05:34:36 10° SW visible
12 Oct 2.8 04:48:23 10° N 04:53:27 74° WNW 04:58:30 10° SSW visible
13 Oct 4.0 04:11:38 10° NNE 04:16:29 44° E 04:21:18 10° S visible
13 Oct 4.4 05:51:53 10° NNW 05:55:05 17° WNW 05:58:16 10° WSW visible
14 Oct 5.5 03:35:54 10° NE 03:39:22 18° E 03:42:47 10° SE visible
14 Oct 3.4 05:13:44 10° N 05:18:26 39° WNW 05:23:07 10° SW visible
15 Oct 2.9 04:36:30 10° NNE 04:41:36 84° ESE 04:46:39 10° S visible
